Other Surface Observations
Issued by NWS Los Angeles, CA

Home | Current Version | Previous Version | Text Only | Print | Product List | Glossary On
Versions: 1 2 3 4 5 6 7 8 9 10 11 12
000
SXUS56 KLOX 271916
OSOLOX

OFFSHORE OIL PLATFORM HARVEST WEATHER
NATIONAL WEATHER SERVICE OXNARD CA
1115 AM PST TUE JAN 27 2015

OBSERVATION FROM DRILLING RIG "HARVEST"
LOCATION 34 DEG 28 MIN N...120 DEG 41 MIN W...12 MILES W
PT CONCEPTION ANEMOMETER LOCATED 163 FEET ABOVE SEA LEVEL.
WIND SENSOR IS PARTIALLY BLOCKED BY OIL RIG STRUCTURE.

SPECI 271911Z 09008KT 12SM FEW025 18/14 A3021 RMKS SEAS 5
TO 7 FEET

$$








































































































































































































































































































































































USA.gov is the U.S. government's official web portal to all federal, state and local government web resources and services.